SCP
0 0 0 0 0 0 0 0 0 0 0 0 0 0 0 0 0 0 0 0 0 0 0 0 0 0 0 0 0 0 0 0 0 0 0 0 0 0 0 0 0 0 0
0 0 0 0 0 1 1 1 0 0 0 0 0 0 0 0 0 0 0 0 0 0 0 0 0 0 0 1 0 0 0 0 0 0 0 0 0 0 0 0 0 0 0
0 0 0 0 0 0 1 1 1 1 1 0 0 0 0 0 0 0 0 0 0 0 0 0 0 0 0 1 1 1 1 1 1 0 0 0 0 0 0 0 0 0 0
0 0 0 0 0 0 0 1 1 1 1 1 0 0 0 0 0 0 0 0 0 0 0 0 0 0 0 1 1 1 1 1 1 0 0 0 0 0 0 0 0 0 0
0 0 0 0 0 0 0 0 0 1 1 1 0 0 0 0 0 0 0 0 0 0 0 0 0 0 0 0 0 1 1 1 1 0 0 0 0 0 0 0 0 0 0
0 0 0 0 0 0 0 0 0 0 1 1 0 0 0 0 0 0 0 0 0 0 0 0 0 0 0 0 0 0 0 0 0 0 0 0 0 0 0 0 0 0 0
0 0 0 0 0 0 0 0 0 0 0 0 0 0 0 0 0 0 0 0 0 0 0 0 0 0 0 0 0 0 0 0 0 0 0 0 0 0 0 0 0 0 0
0 0 0 0 0 0 0 0 0 0 0 0 0 0 0 0 0 0 0 0 0 0 0 0 0 0 0 0 0 0 0 0 0 0 0 0 0 0 0 0 0 0 0
0 0 0 0 0 0 0 0 0 0 0 0 0 0 0 0 0 0 0 0 0 0 0 0 0 0 0 0 0 0 0 0 0 0 0 0 0 0 0 0 0 0 0
0 0 0 0 0 0 0 0 0 0 0 0 0 0 0 0 0 0 0 0 0 0 0 0 0 0 0 0 0 0 0 0 0 0 0 0 0 0 0 0 0 0 0
0 0 0 0 0 0 0 0 0 0 0 0 0 0 0 0 0 0 0 0 0 0 0 0 0 0 0 0 0 0 0 0 0 0 0 0 0 0 0 0 0 0 0
0 0 0 0 0 0 0 0 0 0 0 0 0 0 0 0 0 0 0 0 0 0 0 0 0 0 0 0 0 0 0 0 0 0 0 0 0 0 0 0 0 0 0
0 0 0 0 0 0 0 0 0 0 0 0 0 0 0 0 0 0 0 0 0 0 0 0 0 0 0 0 0 0 0 0 0 0 0 0 0 0 0 0 0 0 0
0 0 0 0 0 0 0 0 0 0 0 0 0 0 0 0 0 0 0 0 0 0 0 0 0 0 0 0 0 0 0 0 0 0 0 0 0 0 0 0 0 0 0
0 0 0 0 0 0 0 0 0 0 0 0 0 0 0 0 0 0 0 0 0 0 0 0 0 0 0 0 0 0 0 0 0 0 0 0 0 0 0 0 0 0 0
0 0 0 0 0 0 0 0 0 0 0 0 0 0 0 0 0 0 0 0 0 0 0 0 0 0 0 0 0 0 0 0 0 0 0 0 0 0 0 0 0 0 0
0 0 0 0 0 0 0 0 0 0 0 0 0 0 0 0 0 0 0 0 0 0 0 0 0 0 0 0 0 0 0 0 0 0 0 0 0 0 0 0 0 0 0
0 0 0 0 0 0 0 0 0 0 0 0 0 0 0 0 0 0 0 0 0 0 0 0 0 0 0 0 0 0 0 0 0 0 0 0 0 0 0 0 0 0 0
0 0 0 0 0 0 0 0 0 0 0 0 0 0 0 0 0 0 0 0 0 0 0 0 0 0 0 0 0 0 0 0 0 0 0 0 0 0 0 0 0 0 0
0 0 0 0 0 0 0 0 0 0 0 0 0 0 0 0 0 0 0 0 0 0 0 0 0 0 0 0 0 0 0 0 0 0 0 0 0 0 0 0 0 0 0
0 0 0 0 0 0 0 0 0 0 0 0 0 0 0 0 0 0 0 0 0 0 0 0 0 0 0 0 0 0 0 0 0 0 0 0 0 0 0 0 0 0 0
0 0 0 0 0 0 0 0 0 0 0 0 0 0 0 0 0 0 0 0 0 0 0 0 0 0 0 0 0 0 0 0 0 0 0 0 0 0 0 0 0 0 0
0 0 0 0 0 0 0 0 0 0 0 0 0 0 0 0 0 0 0 0 0 0 0 0 0 0 0 0 0 0 0 0 0 0 0 0 0 0 0 0 0 0 0
0 0 0 0 0 0 0 0 0 0 0 0 0 0 0 0 0 0 0 0 0 0 0 0 0 0 0 0 0 0 0 0 0 0 0 0 0 0 0 0 0 0 0
0 0 0 0 0 0 0 0 0 0 0 0 0 0 0 0 0 0 0 0 0 0 0 0 0 0 -0 0 0 0 0 0 0 0 0 0 0 0 0 0 0 0 0
0 0 0 0 0 0 0 0 0 0 0 0 0 0 0 0 0 0 0 0 0 0 0 0 0 -0 -0 0 0 0 0 0 0 0 0 0 0 0 0 0 0 0 0
Wind_Speed
4 3 3 3 2 2 2 2 2 3 3 3 3 3 3 3 3 3 3 3 4 4 4 4 5 4 3 3 3 3 4 4 6 5 3 3 3 4 4 4 4 4 4
4 4 4 3 4 3 3 3 3 3 3 3 3 3 3 4 3 3 4 4 4 5 5 5 5 4 4 3 3 4 4 3 4 6 4 3 4 4 4 4 4 4 4
5 4 5 4 4 4 4 4 3 3 4 4 3 3 3 4 4 4 4 4 5 5 5 5 5 4 4 4 4 4 4 4 3 4 5 3 3 3 3 4 4 4 4
5 5 5 5 5 4 4 4 4 4 4 4 4 3 3 4 4 4 4 4 4 4 4 5 4 4 5 5 4 4 4 4 4 4 4 3 3 3 2 3 4 3 4
5 5 5 5 5 5 5 5 5 4 4 4 4 4 4 4 3 4 4 4 4 4 4 4 4 4 6 5 4 4 4 4 4 4 5 4 3 3 3 3 5 5 5
4 5 5 5 5 5 5 5 5 5 5 4 4 4 4 4 6 7 5 4 4 5 5 5 4 4 5 6 7 7 6 6 5 5 5 5 6 5 3 4 4 4 5
4 5 5 5 5 5 5 5 5 5 5 5 5 4 5 6 8 8 7 5 4 4 5 5 4 4 5 5 6 7 7 8 8 6 7 7 6 5 4 5 5 6 6
5 5 5 5 5 5 5 5 5 5 5 4 5 5 5 6 8 8 8 5 4 4 4 4 5 5 5 5 5 5 5 5 6 5 6 7 6 5 5 6 6 6 5
5 6 6 6 5 5 5 5 5 4 4 4 4 5 5 6 8 8 7 4 4 5 4 4 4 5 7 7 5 5 6 5 5 7 8 8 9 8 6 3 3 4 5
5 6 6 5 5 5 6 6 5 4 4 4 4 4 5 5 7 8 7 3 4 4 4 4 4 5 8 8 5 4 6 5 4 4 5 6 6 5 6 4 4 4 4
5 6 6 5 5 6 5 5 5 4 4 4 5 5 5 5 7 8 8 4 4 4 4 4 4 8 9 9 7 5 7 6 4 4 4 4 4 3 3 3 3 4 5
5 6 6 6 5 5 5 5 5 4 4 5 5 5 4 5 5 7 8 7 7 5 5 4 5 9 9 9 7 6 7 6 3 3 3 4 3 3 3 3 4 3 4
5 6 6 6 5 5 5 5 4 4 4 4 4 5 5 4 5 8 8 8 8 5 5 7 9 10 8 6 6 7 5 3 3 3 4 4 4 4 3 3 3 3 4
5 6 6 5 5 5 4 4 4 4 4 4 5 5 5 5 4 4 4 5 6 5 5 5 8 8 6 4 4 4 3 3 3 4 4 4 3 3 3 3 3 3 3
5 5 5 5 5 5 5 4 5 5 5 6 5 5 5 6 7 10 7 5 4 4 4 3 3 3 2 2 2 2 2 2 3 3 3 3 3 4 4 3 3 3 3
4 5 4 4 4 4 5 5 7 7 9 9 9 8 7 9 11 11 10 10 9 7 4 3 3 3 3 3 3 3 3 3 3 3 3 3 4 4 4 3 3 3 4
4 4 4 4 4 4 4 5 6 7 8 9 10 10 10 11 11 10 10 9 7 5 2 3 3 4 4 4 3 3 4 3 3 3 3 4 4 4 4 4 4 3 4
4 4 4 4 4 4 4 4 5 5 6 6 7 10 12 12 11 10 9 6 4 3 2 3 4 4 4 4 4 4 4 3 3 3 3 3 3 4 4 4 4 4 4
3 3 3 3 3 4 4 4 4 5 5 5 5 7 9 10 10 9 7 3 3 4 3 4 4 4 4 4 4 4 4 4 4 3 4 4 3 4 4 4 4 4 4
3 5 4 3 3 3 3 3 4 4 4 5 5 6 5 5 4 5 4 3 3 4 4 4 4 4 4 4 4 3 4 4 4 4 4 4 4 4 5 5 4 4 4
3 3 4 3 3 3 3 3 4 4 4 5 5 6 9 4 4 5 4 4 4 4 5 4 4 4 4 3 3 4 4 4 4 4 4 4 4 4 4 4 4 3 3
3 3 3 3 3 3 3 3 4 4 5 5 5 6 9 5 4 5 5 5 5 4 4 4 4 4 4 4 4 4 5 5 5 4 4 4 4 4 4 3 3 2 2
3 3 3 3 3 4 4 4 4 4 5 5 5 5 5 4 5 5 5 5 5 5 4 4 5 5 4 4 4 4 5 5 5 5 4 4 4 3 3 3 3 3 3
3 3 3 3 3 3 4 4 4 4 5 5 5 5 5 5 5 6 6 5 5 5 4 4 5 6 8 6 4 4 4 5 4 4 5 5 4 3 3 3 3 4 3
3 3 4 4 4 4 4 4 4 4 5 5 5 5 5 5 5 6 5 5 6 6 6 6 5 5 7 8 6 5 6 7 6 4 4 3 4 4 3 3 3 3 3
3 4 4 4 4 4 4 4 5 5 5 5 5 5 5 5 6 6 5 5 5 6 6 5 6 7 7 6 7 7 7 7 6 5 3 3 3 3 3 3 3 3 3
Wind_Direction
15 13 12 2 358 359 353 334 323 323 324 320 307 294 289 288 291 288 280 284 275 275 275 267 268 274 270 265 261 259 254 254 268 283 284 285 264 257 266 262 258 258 263
12 16 14 4 2 357 342 333 329 323 321 314 313 309 299 292 287 280 285 285 270 267 269 269 270 270 269 276 275 270 266 264 265 278 290 292 279 269 269 269 271 269 264
10 15 13 5 0 352 339 333 330 325 324 321 316 306 305 300 292 286 281 283 278 273 272 269 271 270 270 273 275 276 275 277 267 271 282 289 295 299 292 287 279 271 272
6 10 8 359 354 347 341 340 337 334 331 329 322 314 312 309 306 308 303 293 287 287 286 278 274 268 269 272 275 278 281 282 282 278 279 286 289 302 291 286 291 280 278
0 3 356 349 349 349 348 346 345 343 337 332 328 325 323 314 313 317 310 299 295 295 294 289 285 277 280 274 271 273 275 273 276 278 280 288 284 293 280 282 287 295 281
357 355 349 346 347 347 343 344 347 345 342 343 338 332 327 321 321 318 312 302 298 296 295 296 294 287 287 285 279 274 265 263 265 268 271 274 278 279 285 285 288 294 286
350 347 347 347 345 341 341 345 344 339 339 341 335 335 328 324 325 323 321 310 301 296 296 301 304 303 294 293 293 291 283 276 268 263 268 270 275 276 280 280 277 276 273
345 343 343 342 338 336 340 339 336 335 334 330 329 326 321 322 327 326 326 323 313 307 303 298 296 300 300 300 294 290 286 282 279 271 263 270 274 274 262 267 275 283 287
343 337 333 331 328 329 331 327 324 324 324 322 321 319 317 320 328 329 331 324 314 312 309 301 293 293 301 305 297 288 290 292 301 295 290 290 290 289 288 281 273 279 286
324 320 320 322 320 318 316 314 314 313 309 312 314 313 310 309 317 320 321 312 308 309 309 305 294 295 301 301 293 287 285 290 300 306 304 303 300 293 288 269 264 268 280
320 318 318 317 312 306 309 311 311 310 311 310 307 309 307 303 309 315 317 313 303 302 300 302 299 301 300 297 295 286 283 296 297 294 297 300 303 300 296 289 279 267 266
321 318 316 315 313 311 312 311 311 308 306 305 305 308 309 310 310 311 313 312 310 300 295 296 295 297 296 295 299 298 296 300 296 294 291 289 291 293 299 300 295 287 278
323 315 313 314 314 314 309 307 309 307 299 299 299 300 305 310 310 312 308 306 303 298 292 293 296 298 298 299 301 303 308 298 286 282 280 284 285 285 292 299 303 303 299
312 309 310 313 314 316 309 303 298 294 291 291 293 297 302 307 307 306 299 297 297 296 297 297 297 297 296 304 307 308 306 296 284 277 282 286 292 292 287 284 288 298 298
306 304 307 307 305 306 302 293 292 284 280 285 282 283 291 295 298 304 305 296 293 290 302 302 304 306 304 306 303 296 297 300 291 286 281 283 287 287 289 289 275 276 269
301 304 303 303 302 301 303 303 299 296 301 299 297 296 290 291 301 303 303 302 302 304 307 289 289 288 284 289 292 296 293 285 285 285 281 277 279 284 290 293 288 272 269
280 290 296 298 298 299 301 303 306 311 309 308 308 307 306 306 306 308 308 306 304 314 310 290 284 282 284 285 284 287 288 288 285 278 278 281 281 279 279 280 282 278 273
275 279 281 284 290 292 293 294 295 299 307 307 310 312 316 315 313 314 316 321 312 316 286 279 281 279 278 277 276 280 285 290 288 283 280 278 278 278 275 270 270 266 274
273 275 278 282 283 284 290 294 296 296 296 301 311 315 320 316 315 318 325 316 298 294 289 283 279 277 275 273 269 266 269 274 277 278 277 276 276 278 274 271 268 263 265
264 273 277 277 284 288 292 293 296 298 300 303 305 307 317 320 316 316 314 298 290 287 286 282 281 275 270 267 269 269 269 268 268 269 272 272 273 271 269 270 263 261 260
264 276 280 278 275 279 284 285 288 291 292 293 293 297 312 311 302 299 299 296 288 285 285 284 282 280 272 265 263 264 265 269 269 268 271 272 272 274 272 268 262 260 264
254 262 263 265 273 280 283 284 284 285 287 290 294 299 309 307 294 293 293 292 289 284 280 279 279 276 270 261 258 258 259 262 263 264 267 270 269 267 267 260 253 252 249
251 261 267 269 270 278 282 280 279 280 283 286 291 297 299 296 292 290 290 292 293 293 290 283 281 282 276 265 254 248 251 255 255 252 259 266 265 261 247 242 242 244 244
246 252 260 268 270 271 274 278 278 280 283 286 289 291 293 293 293 293 294 295 295 293 291 287 281 281 282 281 275 263 257 258 254 248 244 249 254 255 243 240 244 240 243
243 250 256 259 264 268 272 276 279 282 285 286 288 290 293 295 295 295 296 296 297 296 296 293 287 284 282 281 281 280 277 275 267 253 239 235 242 240 235 238 244 246 243
244 250 255 257 259 262 267 273 277 281 283 286 287 289 291 293 293 294 296 297 299 298 298 295 292 290 289 285 282 286 285 281 274 258 232 226 228 230 228 237 239 243 244